Torna al catalogo

ARIANE 42P+ DEB

AttivoHEO
NORAD 22670·DEBRIS·🇫🇷 France

Lanciato Oct 28, 1992 da Guiana Space Centre

Loading…

Prossimi Passaggi (prossime 24 ore)

TLE

AggiornatoSource: Space-Track

Epoca: Sep 14, 2026, 15:39 UTC

1 22670U 92072C   26257.65243469  .00025239  00000-0  20217-2 0  9993
2 22670   6.7195 231.5374 5993639 292.0795  16.4068  4.09303876764901

Traccia ARIANE 42P+ DEB in tempo reale con AllMySat

Download on the App Store